When you browse on this site, cookies collect data to enhance your experience and personalize the content and advertising you see.
Visit our Privacy Policy to learn more. By continuing to use the site, you agree to this use of cookies and data.
  • In United Kingdom
  • List of Countries
  • For 7 days
  • Water Temperature
  • Satellite Maps
  • Weather Map
  • Weather Widgets
  • user-avatar
    Login

    Hourly Weather Jewłach

    Today, 21 November, Wednesday

    Time Temperature Precipitation Wind Pressure Humidity
    00:00 +12°C° 0 mm 3 mps 760 mmHg 50%
    01:00 +12°C° 0 mm 4 mps 760 mmHg 50%
    02:00 +12°C° 0 mm 4 mps 760 mmHg 50%
    03:00 +13°C° 0 mm 6 mps 759 mmHg 48%
    04:00 +13°C° 0 mm 5 mps 759 mmHg 50%
    05:00 +13°C° 0 mm 5 mps 760 mmHg 51%
    06:00 +12°C° 0 mm 4 mps 760 mmHg 53%
    07:00 +13°C° 0 mm 4 mps 760 mmHg 51%
    08:00 +14°C° 0 mm 3 mps 760 mmHg 49%
    09:00 +16°C° 0 mm 3 mps 759 mmHg 47%
    10:00 +17°C° 0 mm 3 mps 759 mmHg 46%
    11:00 +18°C° 0 mm 3 mps 759 mmHg 44%
    12:00 +18°C° 0 mm 2 mps 759 mmHg 43%
    13:00 +18°C° 0.1 mm 2 mps 759 mmHg 47%
    14:00 +17°C° 0.1 mm 2 mps 759 mmHg 51%
    15:00 +17°C° 0 mm 2 mps 759 mmHg 53%
    16:00 +16°C° 0.4 mm 2 mps 759 mmHg 60%
    17:00 +14°C° 0.4 mm 3 mps 760 mmHg 66%
    18:00 +13°C° 0.4 mm 3 mps 760 mmHg 72%
    19:00 +12°C° 0.3 mm 3 mps 760 mmHg 74%
    20:00 +12°C° 0.3 mm 3 mps 760 mmHg 77%
    21:00 +11°C° 0.3 mm 3 mps 760 mmHg 79%
    22:00 +11°C° 0 mm 3 mps 760 mmHg 79%
    23:00 +11°C° 0 mm 3 mps 760 mmHg 79%

    Tomorrow, 22 November, Thursday

    Time Temperature Precipitation Wind Pressure Humidity
    00:00 +11°C° 0 mm 3 mps 760 mmHg 80%
    01:00 +11°C° 0 mm 3 mps 760 mmHg 80%
    02:00 +10°C° 0 mm 2 mps 759 mmHg 81%
    03:00 +10°C° 0 mm 2 mps 759 mmHg 82%
    04:00 +10°C° 0 mm 2 mps 759 mmHg 82%
    05:00 +10°C° 0 mm 2 mps 759 mmHg 83%
    06:00 +11°C° 0 mm 1 mps 759 mmHg 83%
    07:00 +11°C° 0 mm 1 mps 759 mmHg 81%
    08:00 +11°C° 0 mm 1 mps 759 mmHg 80%
    09:00 +12°C° 0 mm 1 mps 759 mmHg 79%
    10:00 +12°C° 0 mm 1 mps 759 mmHg 77%
    11:00 +13°C° 0 mm 1 mps 759 mmHg 75%
    12:00 +13°C° 0 mm 1 mps 758 mmHg 74%
    13:00 +13°C° 0.1 mm 1 mps 758 mmHg 73%
    14:00 +13°C° 0.1 mm 1 mps 758 mmHg 73%
    15:00 +13°C° 0.1 mm 1 mps 758 mmHg 72%
    16:00 +13°C° 0.1 mm 1 mps 758 mmHg 75%
    17:00 +12°C° 0.1 mm 1 mps 759 mmHg 78%
    18:00 +11°C° 0.1 mm 0 mps 759 mmHg 80%
    19:00 +11°C° 0 mm 0 mps 759 mmHg 82%
    20:00 +11°C° 0 mm 0 mps 759 mmHg 83%
    21:00 +10°C° 0 mm 0 mps 760 mmHg 84%
    22:00 +11°C° 0 mm 1 mps 760 mmHg 85%
    23:00 +11°C° 0 mm 1 mps 760 mmHg 85%

    Day after tomorrow, 23 November, Friday

    Time Temperature Precipitation Wind Pressure Humidity
    00:00 +11°C° 0 mm 1 mps 760 mmHg 85%
    01:00 +10°C° 0 mm 1 mps 760 mmHg 85%
    02:00 +10°C° 0 mm 1 mps 760 mmHg 84%
    03:00 +10°C° 0 mm 1 mps 760 mmHg 84%
    04:00 +10°C° 0 mm 1 mps 760 mmHg 83%
    05:00 +10°C° 0 mm 1 mps 760 mmHg 82%
    06:00 +10°C° 0 mm 1 mps 760 mmHg 81%
    07:00 +11°C° 0 mm 1 mps 760 mmHg 77%
    08:00 +11°C° 0 mm 1 mps 760 mmHg 73%
    09:00 +12°C° 0 mm 1 mps 761 mmHg 69%
    10:00 +13°C° 0 mm 2 mps 760 mmHg 64%
    11:00 +14°C° 0 mm 2 mps 760 mmHg 60%
    12:00 +14°C° 0 mm 3 mps 760 mmHg 55%
    13:00 +14°C° 0 mm 3 mps 760 mmHg 54%
    14:00 +15°C° 0 mm 4 mps 760 mmHg 52%
    15:00 +15°C° 0 mm 4 mps 760 mmHg 51%
    16:00 +14°C° 0 mm 4 mps 760 mmHg 55%
    17:00 +13°C° 0 mm 3 mps 761 mmHg 59%
    18:00 +13°C° 0 mm 2 mps 762 mmHg 64%
    19:00 +13°C° 0 mm 2 mps 763 mmHg 65%
    20:00 +13°C° 0 mm 2 mps 764 mmHg 66%
    21:00 +13°C° 0 mm 1 mps 765 mmHg 68%
    22:00 +12°C° 0.2 mm 2 mps 765 mmHg 71%
    23:00 +12°C° 0.2 mm 2 mps 766 mmHg 74%

    24 November, Saturday

    Time Temperature Precipitation Wind Pressure Humidity
    00:00 +10°C° 0.2 mm 3 mps 767 mmHg 77%
    01:00 +10°C° 0.1 mm 3 mps 767 mmHg 79%
    02:00 +10°C° 0.1 mm 3 mps 768 mmHg 81%
    03:00 +10°C° 0.1 mm 2 mps 768 mmHg 83%
    04:00 +9°C° 0 mm 3 mps 769 mmHg 82%
    05:00 +9°C° 0 mm 3 mps 769 mmHg 82%
    06:00 +9°C° 0 mm 3 mps 770 mmHg 81%
    07:00 +8°C° 0.1 mm 4 mps 771 mmHg 79%
    08:00 +8°C° 0.1 mm 4 mps 771 mmHg 77%
    09:00 +7°C° 0.1 mm 5 mps 772 mmHg 74%
    10:00 +7°C° 0.1 mm 5 mps 772 mmHg 74%
    11:00 +8°C° 0.1 mm 5 mps 772 mmHg 73%
    12:00 +8°C° 0.1 mm 5 mps 772 mmHg 72%
    13:00 +7°C° 0.1 mm 5 mps 772 mmHg 73%
    14:00 +7°C° 0.1 mm 4 mps 772 mmHg 74%
    15:00 +7°C° 0.1 mm 4 mps 772 mmHg 75%
    16:00 +7°C° 0 mm 4 mps 773 mmHg 76%
    17:00 +8°C° 0 mm 3 mps 773 mmHg 78%
    18:00 +7°C° 0 mm 2 mps 773 mmHg 79%
    19:00 +7°C° 0 mm 2 mps 773 mmHg 79%
    20:00 +7°C° 0 mm 2 mps 773 mmHg 79%
    21:00 +8°C° 0 mm 1 mps 773 mmHg 79%
    22:00 +8°C° 0 mm 1 mps 772 mmHg 80%
    23:00 +8°C° 0 mm 1 mps 772 mmHg 80%

    25 November, Sunday

    Time Temperature Precipitation Wind Pressure Humidity
    00:00 +7°C° 0 mm 0 mps 771 mmHg 80%
    01:00 +8°C° 0 mm 1 mps 770 mmHg 81%
    02:00 +8°C° 0 mm 1 mps 770 mmHg 81%
    03:00 +7°C° 0 mm 2 mps 769 mmHg 82%
    04:00 +6°C° 0 mm 2 mps 768 mmHg 82%
    05:00 +6°C° 0 mm 2 mps 768 mmHg 83%
    06:00 +6°C° 0 mm 2 mps 767 mmHg 83%
    07:00 +7°C° 0 mm 2 mps 767 mmHg 79%
    08:00 +8°C° 0 mm 2 mps 767 mmHg 74%
    09:00 +9°C° 0 mm 2 mps 766 mmHg 70%
    10:00 +9°C° 0 mm 2 mps 765 mmHg 65%
    11:00 +10°C° 0 mm 2 mps 764 mmHg 61%
    12:00 +12°C° 0 mm 2 mps 764 mmHg 56%
    13:00 +13°C° 0 mm 2 mps 763 mmHg 55%
    14:00 +13°C° 0 mm 2 mps 762 mmHg 54%
    15:00 +13°C° 0 mm 2 mps 762 mmHg 52%
    16:00 +13°C° 0 mm 2 mps 762 mmHg 56%
    17:00 +12°C° 0 mm 1 mps 762 mmHg 59%
    18:00 +11°C° 0 mm 1 mps 762 mmHg 63%
    19:00 +11°C° 0 mm 1 mps 762 mmHg 64%
    20:00 +11°C° 0 mm 1 mps 762 mmHg 65%
    21:00 +10°C° 0 mm 1 mps 762 mmHg 66%
    22:00 +10°C° 0 mm 1 mps 762 mmHg 67%
    23:00 +9°C° 0 mm 0 mps 762 mmHg 68%

    26 November, Monday

    Time Temperature Precipitation Wind Pressure Humidity
    00:00 +9°C° 0 mm 0 mps 762 mmHg 68%
    01:00 +9°C° 0 mm 0 mps 761 mmHg 68%
    02:00 +10°C° 0 mm 1 mps 761 mmHg 68%
    03:00 +9°C° 0 mm 1 mps 761 mmHg 68%
    04:00 +9°C° 0 mm 1 mps 761 mmHg 68%
    05:00 +9°C° 0 mm 1 mps 761 mmHg 68%
    06:00 +9°C° 0 mm 1 mps 761 mmHg 67%
    07:00 +10°C° 0 mm 1 mps 761 mmHg 64%
    08:00 +11°C° 0 mm 1 mps 761 mmHg 60%
    09:00 +12°C° 0 mm 1 mps 761 mmHg 56%
    10:00 +13°C° 0 mm 1 mps 761 mmHg 52%
    11:00 +14°C° 0 mm 1 mps 760 mmHg 48%
    12:00 +15°C° 0 mm 2 mps 760 mmHg 44%
    13:00 +15°C° 0 mm 2 mps 760 mmHg 43%
    14:00 +16°C° 0 mm 2 mps 760 mmHg 42%
    15:00 +16°C° 0 mm 2 mps 759 mmHg 41%
    16:00 +15°C° 0 mm 1 mps 760 mmHg 44%
    17:00 +14°C° 0 mm 1 mps 760 mmHg 48%
    18:00 +13°C° 0 mm 1 mps 761 mmHg 51%
    19:00 +12°C° 0 mm 1 mps 761 mmHg 52%
    20:00 +12°C° 0 mm 1 mps 761 mmHg 53%
    21:00 +12°C° 0 mm 1 mps 761 mmHg 54%
    22:00 +11°C° 0 mm 1 mps 761 mmHg 54%
    23:00 +11°C° 0 mm 1 mps 761 mmHg 54%
    Show more